Showing default

NUSAT-48 (H. LEAVITT), 60498

Orbit data source: Space-Track

NUSAT-48 (H. LEAVITT), 60498 is a payload satellite owned by URUGUS S.A. (AR) in SSO that was launched on Fri, 16 Aug 2024 UTC via an FALCON 9 launch vehicle from the Air Force Western Test Range (AFWTR). Payload-class satellites include a variety of spacecraft equipped with specific instruments for various scientific and technological missions. These include communications satellites like Starlink; space stations such as the ISS; scientific satellites like the Hubble; Earth observation satellites from companies like Planet Labs, Umbra, and HawkEye 360; GPS; miniature CubeSats for education and research; and military/defense satellites.

Loading next visibility...
Identifier
60498, 2024-149AG
Orbit
SSO
Country
Flag of UnknownUnknown / ARGN
Related business
Manufacturer
URUGUS S.A.
Mission
Operational Commercial Imaging
Bus & Motor
NEWSAT V, Unknown motor
Mass
41.5 kg wet, 38.5 kg dry
Launch date (UTC)
2024-08-16 (1 year ago)
Launch vehicle
FALCON 9
Launch site
Air Force Western Test Range (AFWTR)
Object type
Payload
Rocket body
Debris
Shape & HBR
Box, 1.0 m
Radar Cross Section
0.542 m², Medium (>0.1 m² and < 1m²)

Expand to show TLE details & history
Last TLE update: 8 hours ago

TLE from 8 hours ago
0 NUSAT-48 (H. LEAVITT)
1 60498U 24149AG  25298.20680562  .00017395  00000-0  57581-3 0  9996
2 60498  97.3960  15.7218 0005405  48.9309 311.2398 15.31368938 66202
Epoch: 2025-10-25T04:57Z
TLE epoch observation values (Epoch: 2025-10-25T04:57:48.005Z)
Latitude
-0.00008°
Longitude
-92.56889°
Altitude
472.393 km
Speed
7.631 km/s
True Right ascension
01h 02m 53s
True Declination
0° 00' 00"
Sunlit
Object was in full shadow at epoch
Visualization orbit readout
Latitude
Unknown
Longitude
Unknown
Altitude
Unknown
Speed
Unknown
Apparent Right ascension
Unknown
Apparent Declination
Unknown
Sunlit
N/A
Visualization observer readout
Local Sidereal Time
08:33:14
Azimuth
Unknown
Elevation
Unknown
Doppler factor
Unknown
Orbital elements
Apogee altitude
472.378 km
Perigee altitude
464.977 km
Semi-major axis
6,846.814 km
Eccentricity
0.00054
Inclination
97.396°
RAAN
15.7218°
Arg. of periapsis
48.9309°
True anomaly
311.19321°
Mean anomaly
311.2398°
Eccentric anomaly
311.2165°
Mean motion
3.83098 °/min
Orbital period
93.97 mins
BSTAR
0.00057581
Loading maneuver chart data...
Computing Atmospheric mass density...
Loading historical data...
Loading historical data...
Loading historical data...
Loading historical data...
Loading historical data...
Loading historical data...
Loading historical data...

Documentation

Showing up to 5 results
|